Location: Kuffner-Sternwarte
(48.2130°N, 16.2960°E)
Time: 04:41:43
(UTC+02:00)

COROT - Pass Details

Date: 17 May 2018
Orbit: 600 x 889 km, 90.0° (Epoch: 24 May)

Event Time Altitude Azimuth Distance (km) Brightness Sun altitude
Rises 21:18:00 0° 11° (N) 2,962 9.5 -7.3°
Reaches altitude 10° 21:20:26 10° 23° (NNE) 2,085 8.5 -7.6°
Maximum altitude 21:24:25 28° 84° (E) 1,278 6.8 -8.1°
Enters shadow 21:28:34 10° 143° (SE) 2,195 7.7 -8.6°
